INFORMACIÓN METAR y TAF
METAR FOR LERT
ADDS - METARS form results

(1555 UTC 28 November 2022)
Data provider http://aviationweather.gov/metar/data/
 
METAR text: LERT 281530Z 30009KT 260V330 CAVOK 17/08 Q1023 NOSIG
Conditions at: LERT (ROTA NAVAL STATI, ES) observed 1530 UTC 28 November 2022
Temperature: 17.0°C (63°F)
Dewpoint: 8.0°C (46°F) [RH = 55%]
Pressure (altimeter): 30.21 inches Hg (1023.0 mb)
Winds: from the WNW (300 degrees) at 10 MPH (9 knots; 4.6 m/s)
Visibility: 6 or more miles (10+ km)
Ceiling: ceiling and visibility are OK
Clouds: unknown
Weather: no significant weather observed at this time

METAR text: LERT 281500Z 36007KT 320V050 CAVOK 17/09 Q1023 NOSIG
Conditions at: LERT (ROTA NAVAL STATI, ES) observed 1500 UTC 28 November 2022
Temperature: 17.0°C (63°F)
Dewpoint: 9.0°C (48°F) [RH = 59%]
Pressure (altimeter): 30.21 inches Hg (1023.0 mb)
Winds: from the N (360 degrees) at 8 MPH (7 knots; 3.6 m/s)
Visibility: 6 or more miles (10+ km)
Ceiling: ceiling and visibility are OK
Clouds: unknown
Weather: no significant weather observed at this time

Forecast for: LERT (ROTA NAVAL STATI, ES)
Text: TAF LERT 281400Z 2815/2915 01010KT CAVOK TX18/2914Z TN11/2906Z
Forecast period: 1500 UTC 28 November 2022 to 1500 UTC 29 November 2022
Forecast type: FROM: standard forecast or significant change
Winds: from the N (10 degrees) at 12 MPH (10 knots; 5.1 m/s)
Visibility: 6 or more miles (10+ km)
Ceiling: unknown
Clouds: missing
Weather: no significant weather forecast for this period

 MAPA DE AEROPUERTO

 INFORMACIÓN DE PISTA
Pista 10 Longitud 12106 ft Ancho 200 ft
Elevación 63 ft Umbral desplazado 0 ft Rumbo de pista 97
Pista 28 Longitud 12106 ft Ancho 200 ft
Elevación 62 ft Umbral desplazado 0 ft Rumbo de pista 277

 FRECUANCIAS DEL AEROPUERTO
Tipo A/G Nombre CW AOK Frecuencia 672.15 MHZ
Tipo APP Nombre SEVILLA AP Frecuencia 120.8 MHZ
Tipo APP Nombre APP Frecuencia 128.5 MHZ
Tipo APP Nombre APP Frecuencia 264.7 MHZ
Tipo APP Nombre APP Frecuencia 279 MHZ
Tipo ATIS Nombre ROTA INFOR Frecuencia 267.6 MHZ
Tipo GCA Nombre ROTA GCA Frecuencia 123.3 MHZ
Tipo GCA Nombre GCA Frecuencia 134.1 MHZ
Tipo GND Nombre GND Frecuencia 130.7 MHZ
Tipo MISC Nombre BASE OPS Frecuencia 126.2 MHZ
Tipo TWR Nombre ROTA TWR Frecuencia 119.75 MHZ
Tipo TWR Nombre TWR Frecuencia 122.1 MHZ
Tipo TWR Nombre HEL Frecuencia 122.225 MHZ
Tipo TWR Nombre TWR Frecuencia 139.3 MHZ
Tipo TWR Nombre TWR Frecuencia 257.8 MHZ
Tipo TWR Nombre TWR Frecuencia 306.85 MHZ

 RADIO AYUDAS DEL AEROPUERTO
Tipo TACAN Nombre Rota Frecuencia 108600 KHZ
Tipo NDB Nombre Rota Frecuencia 268 KHZ




Powered by Virtual Airlines Manager